Regional Weather Roundup
Issued by NWS Upton, NY

Current Version | Previous Version | Graphics & Text | Print | Product List | Glossary Off
Versions: 1 2 3 4 5 6 7 8 9 10 11 12 13 14 15 16 17 18 19 20 21 22 23 24 25 26 27

000
ASUS41 KOKX 230107
RWROKX

REGIONAL WEATHER ROUNDUP
NATIONAL WEATHER SERVICE NEW YORK NY
900 PM EDT WED MAR 22 2017

NOTE: "FAIR" INDICATES FEW OR NO CLOUDS BELOW 12,000 FEET WITH NO
SIGNIFICANT WEATHER AND/OR OBSTRUCTIONS TO VISIBILITY.

NYZ071-072-176-178-NJZ106-104-230200-
NEW YORK CITY METRO AREA

CITY           SKY/WX    TMP DP  RH WIND       PRES   REMARKS
Central Park   CLEAR     28  -5  23 VRB5      30.40R WCI  23
Wall St Helipt CLEAR     30   7  37 E9        30.40R WCI  22
LaGuardia APRT CLEAR     30  -1  26 NW25G35   30.38R WCI  16
Kennedy INTL   CLEAR     29  -6  22 NW24G33   30.39R WCI  15
Breezy Point     N/A    N/A N/A N/A NW17G28     N/A
Newark/Liberty CLEAR     29  -4  24 NW20      30.40R WCI  16
Teterboro      CLEAR     28  -4  25 N18G30    30.39R WCI  15
$$

NYZ177-179-078>081-230200-
LONG ISLAND NEW YORK

CITY           SKY/WX    TMP DP  RH WIND       PRES   REMARKS
Jones Beach      N/A    N/A N/A N/A NW24G31     N/A
Matinecock PT    N/A    N/A N/A N/A NW28G33     N/A
Farmingdale    CLEAR     28  -2  27 NW14G23   30.35R WCI  17
MacArthur/ISP  CLEAR     26  -1  31 NW21G29   30.33R WCI  12
Shirley        CLEAR     25  -3  29 NW15G21   30.34R WCI  13
Westhampton    CLEAR     25  -7  24 NW26G38   30.33R WCI   9
East Hampton     N/A     24  -5  27 NW14G30   30.30R WCI  12
Montauk          N/A     27   1  32 NW20G29   30.29R WCI  13
$$

NYZ052-065-067-230200-
HUDSON VALLEY

CITY           SKY/WX    TMP DP  RH WIND       PRES   REMARKS
White Plains   CLEAR     24  -4  29 NW18G25   30.34R WCI  10
Newburgh       CLEAR     21   0  39 SW12G23   30.38R WCI   9
Montgomery     CLEAR     23  -5  29 NW8       30.39R WCI  14
Poughkeepsie   CLEAR     21  -4  33 NW9       30.38R WCI  11
Albany         CLEAR     21  -5  31 NW17G26   30.39R WCI   7
$$

NJZ001-105-106-008-010-013-015-019>022-104-230200-
NEW JERSEY

CITY           SKY/WX    TMP DP  RH WIND       PRES   REMARKS
Newark/Liberty CLEAR     29  -4  24 NW20      30.40R WCI  16
Teterboro      CLEAR     28  -4  25 N18G30    30.39R WCI  15
Caldwell       CLEAR     26  -1  31 NW9G20    30.41R WCI  17
Somerville     CLEAR     27  -2  28 N10G25    30.41R WCI  17
Linden           N/A     28  -2  26 N18G26    30.41R WCI  15
Sussex         CLEAR     23  -1  35 N15       30.40R WCI  10
Andover          N/A     22  -1  36 N9G22     30.40R WCI  12
Trenton        CLEAR     28  -3  26 N17       30.40R WCI  16
Millville      CLEAR     33   2  26 NW13      30.40R WCI  24
Atlantic City  CLEAR     31  -3  23 N15       30.40R WCI  20
Wrightstown    CLEAR     29  -2  25 NW17G23   30.38R WCI  17
Toms River     CLEAR     29   0  28 NW13G21   30.40R WCI  19
Belmar         CLEAR     28   1  31 NW16      30.40R WCI  16
$$

PAZ047>061-062-071-230200-
EASTERN PENNSYLVANIA

CITY           SKY/WX    TMP DP  RH WIND       PRES   REMARKS
Philadelphia   CLEAR     32  -2  23 N16G23    30.43R WCI  21
Allentown      CLEAR     27  -2  28 N12       30.43R WCI  17
Scranton       CLEAR     20   2  45 N9        30.42R WCI   9
$$

CTZ002-004>006-009-010-012-RIZ004-006-007-MAZ004-011-015-230200-
SOUTHERN NEW ENGLAND
 IN CT

CITY           SKY/WX    TMP DP  RH WIND       PRES   REMARKS
Bradley INTL   CLEAR     22  -6  29 NW14      30.31R WCI   9
Hartford       CLEAR     23  -3  32 NW10      30.33R WCI  12
Danbury        CLEAR     22  -5  30 NW13G22   30.35R WCI  10
Wtrbury/Oxford CLEAR     19  -4  35 N14       30.30R WCI   6
Bridgeport     CLEAR     26  -5  25 NW23G33   30.35R WCI  11
Meriden        CLEAR     24  -5  27 NW13G22   30.34R WCI  12
New Haven      CLEAR     24  -4  29 NW15G24   30.33R WCI  11
Chester          N/A     23  -8  25 NW15G23   30.28R WCI  10
Groton         CLEAR     26  -8  22 NW16G29   30.28R WCI  14
Wilimantic     CLEAR     25  -8  23 NW15G26   30.29R WCI  13

 IN RI

CITY           SKY/WX    TMP DP  RH WIND       PRES   REMARKS
Providence     CLEAR     24  -9  23 NW20G32   30.25R WCI  10
Block Island   CLEAR     26  -1  31 NW22G33   30.25R WCI  12
Westerly       CLEAR     26  -9  21 NW16G26   30.28R WCI  14
 IN MA

CITY           SKY/WX    TMP DP  RH WIND       PRES   REMARKS
Boston         CLEAR     21  -8  27 NW18G38   30.24R WCI   6
Worcester      CLEAR     18 -12  26 NW18G26   30.20R WCI   2
Westfield      CLEAR     21  -8  27 N13G21    30.31R WCI   9
Provincetown   CLEAR     23   6  48 N29G41    30.19R WCI   6
Nantucket      CLEAR     25  -2  31 NW25G39   30.17R WCI   9
$$

ANZ330-335-338-340-345-350-353-355-230200-
COASTAL MARINE OBSERVATIONS


STATION/POSITION TIME  SKY/WX   TEMP    WIND        PRES    VSBY  WAVE
                                AIR SEA DIR/SP/G                  HT/PER
                 (UTC)          (F)     (DEG/KT/KT) (MB)    (MI)  (FT/S)
NY HARB ENTRANCE 2350            33 42  320/ 21/ 27 1026.5          5/ 5
20 S FIRE ISLAND 0050            31 41  320/ 23/ 31 1026.5          6/ 6
GREAT SOUTH BAY  NOT AVBL
23 SSW MONTAUK P 2350            29 42              1024.0          7/ 5
15 E BARNEGAT LI 0030               42                N/A           6/ 6
HUDSON CANYON    2350            35 45  320/ 27/ 35 1024.3         11/ 8
KINGS POINT      0030            28 38              1028.2
EXECUTION ROCKS  NOT AVBL
CENTRAL LI SOUND 2330            28     330/ 23/ 29   N/A           4/ 5
EASTERN LI SOUND NOT AVBL
ROBBINS REEF     0030            29     320/ 16/ 25 1028.7
$$


>>>>>>>>>>>>>>>>>>>>>>>>>>>> KEY <<<<<<<<<<<<<<<<<<<<<<<<<<<
>                                                          <
>     SKY/WX - Sky Condition/Present Weather               <
>     TMP    - Temperature in Fahrenheit                   <
>     DP     - Dew Point in Fahrenheit                     <
>     RH     - Relative Humidity in Percent                <
>     WIND   - Direction (from) and Speed in MPH           <
>     PRES   - Mean Sea Level Pressure (inches of Hg)      <
>     WCI    - Wind Chill Index                            <
>     VSB    - VISIBILITY IN MILES                         <
>     HX     - HEAT INDEX                                  <
>     TC     - TEMPERATURE IN CELSIUS                      <
>     VRB    - VARIABLE WIND DIRECTION                     <
>                                                          <
>>>>>>>>>>>>>>>>>>>>>>>>>>>> KEY <<<<<<<<<<<<<<<<<<<<<<<<<<<




USA.gov is the U.S. government's official web portal to all federal, state and local government web resources and services.